Charleston, WV

4:58 AM EST on November 20, 2019 (GMT -0500)
Yeager Airport

Weather History for KCRW - October, 2019

Change the Weather History Date:

Wednesday, October 16, 2019

  Actual Average Record
Temperature  
Mean Temperature 53 °F 56 °F  
Max Temperature 61 °F 68 °F 94 °F (1928)
Min Temperature 45 °F 45 °F 28 °F (1937)
Degree Days  
Heating Degree Days 12 9  
Month to date heating degree days 60 114  
Since 1 July heating degree days 60 172  
Cooling Degree Days 0 0  
Month to date cooling degree days 61 16  
Year to date cooling degree days 1514 1089  
Growing Degree Days 1 (Base 50)    
Moisture  
Dew Point 46 °F    
Average Humidity 80    
Maximum Humidity 96    
Minimum Humidity 63    
Precipitation  
Precipitation 0.86 in 0.08 in 1.90 in (1936)
Month to date precipitation 3.29 1.35  
Year to date precipitation 36.89 35.71  
Snow  
Snow 0.00 in 0.00 in 0.00 in (2016)
Month to date snowfall 0.0 0.0  
Since 1 September snowfall 0.0 0.0  
Snow Depth 0.00 in    
Sea Level Pressure  
Sea Level Pressure 29.80 in    
Wind  
Wind Speed 7 mph (West)    
Max Wind Speed 24 mph    
Max Gust Speed 39 mph    
Visibility 7 miles    
Events Fog , Rain    
T = Trace of Precipitation, MM = Missing Value Source: NWS Daily Summary

Daily Weather History Graph

Daily Weather History Graph

Search for Another Location

Airport or City:

Astronomy

Oct. 16, 2019 Rise Set
Actual Time 7:36 AM EDT 6:47 PM EDT
Civil Twilight 7:09 AM EDT 7:13 PM EDT
Nautical Twilight 6:38 AM EDT 7:44 PM EDT
Astronomical Twilight 6:07 AM EDT 8:15 PM EDT
Moon 8:41 PM EDT (10/16) 10:03 AM EDT (10/16)
Length of Visible Light 12h 04m
Length of Day
11h 11m
Waning Gibbous, 93% of the Moon is Illuminated
Oct 16
Waning Gibbous
Oct 21
Last Quarter
Oct 27
New
Nov 4
First Quarter
Nov 12
Full

Hourly Weather History & Observations

Time (EDT) Temp. Windchill Dew Point Humidity Pressure Visibility Wind Dir Wind Speed Gust Speed Precip Events Conditions
12:54 AM 55.0 °F - 45.0 °F 69% 29.85 in 10.0 mi Calm Calm - N/A   Mostly Cloudy
1:54 AM 55.0 °F - 46.0 °F 72% 29.82 in 10.0 mi Calm Calm - N/A   Mostly Cloudy
2:54 AM 55.9 °F - 45.0 °F 67% 29.78 in 10.0 mi Calm Calm - N/A   Overcast
3:54 AM 55.9 °F - 48.9 °F 77% 29.74 in 10.0 mi Calm Calm - N/A   Overcast
4:54 AM 57.9 °F - 50.0 °F 75% 29.76 in 10.0 mi South 8.1 mph - 0.04 in Rain Rain
5:54 AM 55.9 °F - 53.1 °F 90% 29.73 in 10.0 mi Calm Calm - 0.05 in Rain Light Rain
6:47 AM 55.0 °F - 53.1 °F 93% 29.74 in 6.0 mi NW 8.1 mph - 0.03 in Rain Light Rain
6:54 AM 55.0 °F - 53.1 °F 93% 29.73 in 6.0 mi Variable 4.6 mph 19.6 mph 0.07 in Rain Heavy Rain
7:49 AM 55.4 °F - 53.6 °F 94% 29.72 in 0.5 mi South 4.6 mph - 0.26 in Fog , Rain Rain
7:54 AM 55.9 °F - 54.0 °F 93% 29.71 in 0.5 mi SSE 4.6 mph - 0.27 in Fog , Rain Rain
8:48 AM 55.4 °F - 53.6 °F 94% 29.69 in 2.0 mi SE 6.9 mph - 0.17 in Rain Light Rain
8:54 AM 55.9 °F - 54.0 °F 93% 29.68 in 2.0 mi SE 5.8 mph - 0.19 in Rain Rain
9:20 AM 55.9 °F - 55.0 °F 97% 29.69 in 5.0 mi Calm Calm - 0.07 in Rain Light Rain
9:43 AM 54.0 °F - 52.0 °F 93% 29.74 in 0.5 mi WNW 24.2 mph 35.7 mph 0.10 in Fog , Rain Heavy Rain
9:52 AM 51.8 °F - 50.0 °F 94% 29.74 in 0.5 mi WNW 16.1 mph 39.1 mph 0.15 in Fog , Rain Rain
9:54 AM 52.0 °F - 50.0 °F 93% 29.74 in 0.5 mi NW 13.8 mph 39.1 mph 0.15 in Fog , Rain Rain
9:56 AM 52.0 °F - 48.9 °F 89% 29.75 in 4.0 mi WNW 18.4 mph 32.2 mph 0.00 in Rain Light Rain
10:54 AM 51.1 °F - 48.9 °F 92% 29.76 in 5.0 mi WSW 4.6 mph - 0.04 in Rain Light Rain
11:54 AM 48.9 °F - 46.0 °F 90% 29.79 in 5.0 mi West 11.5 mph 17.3 mph 0.05 in Rain Light Rain
12:54 PM 51.1 °F - 46.0 °F 83% 29.81 in 10.0 mi Variable 5.8 mph - 0.00 in   Mostly Cloudy
1:54 PM 51.1 °F - 43.0 °F 74% 29.81 in 10.0 mi WSW 5.8 mph - N/A   Mostly Cloudy
2:54 PM 53.1 °F - 41.0 °F 64% 29.79 in 10.0 mi West 11.5 mph 21.9 mph N/A   Overcast
3:54 PM 51.1 °F - 39.0 °F 63% 29.81 in 10.0 mi WNW 8.1 mph 21.9 mph N/A   Mostly Cloudy
4:54 PM 48.9 °F - 39.0 °F 69% 29.84 in 10.0 mi NW 9.2 mph 21.9 mph N/A   Overcast
5:54 PM 48.0 °F - 37.9 °F 68% 29.86 in 10.0 mi NW 10.4 mph 28.8 mph N/A   Overcast
6:54 PM 46.9 °F - 37.9 °F 71% 29.88 in 10.0 mi West 10.4 mph - N/A   Overcast
7:54 PM 46.0 °F 41.4 °F 37.9 °F 73% 29.90 in 10.0 mi WSW 9.2 mph - N/A   Overcast
8:43 PM 46.0 °F 40.6 °F 39.0 °F 76% 29.91 in 10.0 mi WSW 11.5 mph - 0.00 in Rain Light Rain
8:54 PM 45.0 °F 39.7 °F 39.0 °F 80% 29.91 in 10.0 mi WSW 10.4 mph 19.6 mph 0.00 in Rain Light Rain
9:54 PM 46.0 °F 39.6 °F 39.0 °F 76% 29.91 in 10.0 mi WSW 15.0 mph 21.9 mph 0.00 in   Light Drizzle
10:54 PM 46.9 °F - 39.0 °F 74% 29.91 in 10.0 mi WSW 10.4 mph 23.0 mph 0.00 in   Overcast
11:54 PM 46.9 °F - 39.0 °F 74% 29.92 in 10.0 mi North - - N/A   Overcast